Tracking 25693 objects as of 30-Jun-2022
HD Live streaming from Space Station
objects crossing your sky now

PORCUPINE 1

Track PORCUPINE 1 now!
10-day predictions
PORCUPINE 1 is classified as:


NORAD ID: 1272
Int'l Code: 1965-016H
Perigee: 903.3 km
Apogee: 938.5 km
Inclination: 70.1 °
Period: 103.3 minutes
Semi major axis: 7291 km
RCS: 0.248 m2 (medium)
Launch date: March 9, 1965
Source: United States (US)
Launch site: AIR FORCE WESTERN TEST RANGE (AFWTR)
aabbcc
Your satellite tracking list
Your tracking list is empty




NASA's NSSDC Master Catalog

Two Line Element Set (TLE):
1 01272U 65016H   22180.89509164 -.00000020  00000-0  24489-4 0  9999
2 01272  70.0804  85.6986 0024136 226.7006 133.2087 13.94259365914515
Source of the keplerian elements: AFSPC